| time (UTC) | temp C | wind direction | speed KPH | gust KPH | rain 1hr cm | rain 24hr cm | rain mn cm | humidity % | barometer mb |
| 20260510220210 | 20 | 202 | 1.6 | 3.2 | 0.00 | 0.00 | 0.00 | 48 | 1017.2 |
| 20260510215930 | 20 | 143 | 0.0 | 8.0 | 0.00 | 0.00 | 0.00 | 50 | 1017.2 |
| 20260510215153 | 20 | 167 | 0.0 | 8.0 | 0.00 | 0.00 | 0.00 | 48 | 1017.2 |
| 20260510214642 | 20 | 126 | 1.6 | 8.0 | 0.00 | 0.00 | 0.00 | 47 | 1016.9 |
| 20260510214142 | 21 | 114 | 0.0 | 3.2 | 0.00 | 0.00 | 0.00 | 52 | 1017.2 |
| 20260510213634 | 21 | 119 | 0.0 | 8.0 | 0.00 | 0.00 | 0.00 | 48 | 1016.9 |
| 20260510213131 | 21 | 173 | 0.0 | 8.0 | 0.00 | 0.00 | 0.00 | 48 | 1016.9 |
| 20260510212858 | 21 | 163 | 0.0 | 8.0 | 0.00 | 0.00 | 0.00 | 50 | 1017.2 |
| 20260510212056 | 20 | 123 | 3.2 | 12.9 | 0.00 | 0.00 | 0.00 | 47 | 1016.9 |
| 20260510211551 | 21 | 132 | 3.2 | 12.9 | 0.00 | 0.00 | 0.00 | 49 | 1017.2 |
| 20260510211043 | 21 | 196 | 3.2 | 8.0 | 0.00 | 0.00 | 0.00 | 43 | 1017.2 |
| 20260510210533 | 21 | 127 | 0.0 | 8.0 | 0.00 | 0.00 | 0.00 | 44 | 1017.2 |
| 20260510210021 | 21 | 136 | 1.6 | 12.9 | 0.00 | 0.00 | 0.00 | 42 | 1017.2 |
| 20260510205512 | 21 | 135 | 1.6 | 12.9 | 0.00 | 0.00 | 0.00 | 43 | 1017.2 |
| 20260510205000 | 21 | 128 | 3.2 | 8.0 | 0.00 | 0.00 | 0.00 | 44 | 1017.2 |
| 20260510204445 | 21 | 127 | 4.8 | 8.0 | 0.00 | 0.00 | 0.00 | 42 | 1017.2 |
| 20260510204217 | 22 | 168 | 0.0 | 3.2 | 0.00 | 0.00 | 0.00 | 44 | 1017.2 |
| 20260510203712 | 21 | 127 | 0.0 | 8.0 | 0.00 | 0.00 | 0.00 | 40 | 1017.2 |
| 20260510202935 | 21 | 190 | 8.0 | 8.0 | 0.00 | 0.00 | 0.00 | 42 | 1017.2 |
| 20260510202428 | 22 | 121 | 0.0 | 8.0 | 0.00 | 0.00 | 0.00 | 42 | 1017.2 |
| 20260510202201 | 22 | 142 | 0.0 | 8.0 | 0.00 | 0.00 | 0.00 | 43 | 1017.2 |
| 20260510201411 | 22 | 229 | 3.2 | 8.0 | 0.00 | 0.00 | 0.00 | 42 | 1017.2 |
| 20260510200858 | 22 | 60 | 0.0 | 3.2 | 0.00 | 0.00 | 0.00 | 39 | 1016.9 |
| 20260510200353 | 23 | 120 | 0.0 | 8.0 | 0.00 | 0.00 | 0.00 | 46 | 1016.9 |
| 20260510195845 | 22 | 130 | 3.2 | 8.0 | 0.00 | 0.00 | 0.00 | 37 | 1017.2 |
| 20260510195336 | 22 | 119 | 4.8 | 8.0 | 0.00 | 0.00 | 0.00 | 40 | 1017.2 |
| 20260510194829 | 22 | 183 | 3.2 | 8.0 | 0.00 | 0.00 | 0.00 | 41 | 1016.9 |
| 20260510194814 | 22 | 250 | 4.8 | 8.0 | 0.00 | 0.00 | 0.00 | 35 | 1017.2 |
| 20260510193811 | 22 | 195 | 1.6 | 8.0 | 0.00 | 0.00 | 0.00 | 38 | 1017.2 |
| 20260510193303 | 22 | 125 | 0.0 | 8.0 | 0.00 | 0.00 | 0.00 | 42 | 1017.2 |
| 20260510192753 | 22 | 124 | 3.2 | 8.0 | 0.00 | 0.00 | 0.00 | 38 | 1017.2 |
| 20260510192249 | 22 | 118 | 1.6 | 8.0 | 0.00 | 0.00 | 0.00 | 43 | 1016.9 |
| 20260510191738 | 22 | 195 | 3.2 | 8.0 | 0.00 | 0.00 | 0.00 | 39 | 1016.9 |
| 20260510191239 | 22 | 140 | 0.0 | 8.0 | 0.00 | 0.00 | 0.00 | 38 | 1017.2 |
| 20260510190734 | 22 | 305 | 0.0 | 8.0 | 0.00 | 0.00 | 0.00 | 39 | 1016.9 |
| 20260510190457 | 21 | 192 | 0.0 | 12.9 | 0.00 | 0.00 | 0.00 | 39 | 1016.9 |
| 20260510185712 | 22 | 209 | 6.4 | 12.9 | 0.00 | 0.00 | 0.00 | 41 | 1016.9 |
| 20260510185205 | 21 | 126 | 1.6 | 12.9 | 0.00 | 0.00 | 0.00 | 43 | 1017.2 |
| 20260510184653 | 21 | 128 | 4.8 | 12.9 | 0.00 | 0.00 | 0.00 | 42 | 1017.2 |
| 20260510184438 | 22 | 238 | 4.8 | 8.0 | 0.00 | 0.00 | 0.00 | 44 | 1017.2 |
| 20260510183639 | 21 | 70 | 0.0 | 8.0 | 0.00 | 0.00 | 0.00 | 44 | 1016.9 |
| 20260510183131 | 21 | 132 | 0.0 | 3.2 | 0.00 | 0.00 | 0.00 | 46 | 1016.9 |
| 20260510182615 | 21 | 169 | 1.6 | 8.0 | 0.00 | 0.00 | 0.00 | 40 | 1016.9 |
| 20260510182116 | 21 | 147 | 0.0 | 12.9 | 0.00 | 0.00 | 0.00 | 45 | 1016.6 |
| 20260510181554 | 21 | 136 | 1.6 | 12.9 | 0.00 | 0.00 | 0.00 | 43 | 1016.6 |
| 20260510181052 | 22 | 110 | 3.2 | 12.9 | 0.00 | 0.00 | 0.00 | 44 | 1016.9 |
| 20260510180829 | 22 | 136 | 3.2 | 8.0 | 0.00 | 0.00 | 0.00 | 45 | 1016.6 |
| 20260510180317 | 22 | 175 | 1.6 | 12.9 | 0.00 | 0.00 | 0.00 | 48 | 1016.6 |
| 20260510175528 | 22 | 196 | 8.0 | 12.9 | 0.00 | 0.00 | 0.00 | 45 | 1016.9 |
| 20260510175025 | 22 | 181 | 3.2 | 12.9 | 0.00 | 0.00 | 0.00 | 43 | 1016.9 |
| 20260510174511 | 22 | 179 | 1.6 | 8.0 | 0.00 | 0.00 | 0.00 | 48 | 1016.9 |
| 20260510174008 | 22 | 127 | 6.4 | 12.9 | 0.00 | 0.00 | 0.00 | 46 | 1016.6 |
| 20260510173455 | 21 | 137 | 3.2 | 16.1 | 0.00 | 0.00 | 0.00 | 43 | 1017.2 |
| 20260510172946 | 22 | 144 | 1.6 | 16.1 | 0.00 | 0.00 | 0.00 | 44 | 1016.9 |
| 20260510172447 | 21 | 128 | 1.6 | 8.0 | 0.00 | 0.00 | 0.00 | 45 | 1016.9 |
| 20260510171930 | 21 | 123 | 1.6 | 12.9 | 0.00 | 0.00 | 0.00 | 44 | 1016.9 |
| 20260510171426 | 21 | 200 | 3.2 | 12.9 | 0.00 | 0.00 | 0.00 | 40 | 1016.9 |
| 20260510170913 | 22 | 191 | 3.2 | 8.0 | 0.00 | 0.00 | 0.00 | 46 | 1016.6 |
| 20260510170409 | 21 | 167 | 0.0 | 12.9 | 0.00 | 0.00 | 0.00 | 47 | 1016.9 |
| 20260510165927 | 21 | 137 | 3.2 | 16.1 | 0.00 | 0.00 | 0.00 | 43 | 1016.9 |
| 20260510165859 | 21 | 202 | 8.0 | 16.1 | 0.00 | 0.00 | 0.00 | 43 | 1016.9 |
| 20260510164830 | 21 | 130 | 4.8 | 8.0 | 0.00 | 0.00 | 0.00 | 44 | 1016.6 |
| 20260510164311 | 22 | 202 | 4.8 | 8.0 | 0.00 | 0.00 | 0.00 | 45 | 1016.9 |
| 20260510164052 | 22 | 263 | 1.6 | 12.9 | 0.00 | 0.00 | 0.00 | 47 | 1016.9 |
| 20260510163540 | 21 | 116 | 3.2 | 16.1 | 0.00 | 0.00 | 0.00 | 47 | 1016.9 |
| 20260510162740 | 21 | 34 | 1.6 | 16.1 | 0.00 | 0.00 | 0.00 | 47 | 1016.9 |
| 20260510162237 | 21 | 219 | 0.0 | 8.0 | 0.00 | 0.00 | 0.00 | 49 | 1017.2 |
| 20260510161243 | 21 | 123 | 3.2 | 8.0 | 0.00 | 0.00 | 0.00 | 48 | 1017.2 |
| 20260510160716 | 21 | 131 | 0.0 | 12.9 | 0.00 | 0.00 | 0.00 | 52 | 1017.2 |
| 20260510160453 | 21 | 203 | 8.0 | 12.9 | 0.00 | 0.00 | 0.00 | 49 | 1017.2 |
| 20260510155713 | 21 | 112 | 0.0 | 8.0 | 0.00 | 0.00 | 0.00 | 48 | 1016.9 |
| 20260510155201 | 21 | 146 | 1.6 | 16.1 | 0.00 | 0.00 | 0.00 | 51 | 1016.9 |
| 20260510154652 | 21 | 118 | 4.8 | 16.1 | 0.00 | 0.00 | 0.00 | 48 | 1017.2 |
| 20260510154140 | 21 | 141 | 0.0 | 8.0 | 0.00 | 0.00 | 0.00 | 51 | 1017.2 |
| 20260510153904 | 21 | 134 | 0.0 | 8.0 | 0.00 | 0.00 | 0.00 | 53 | 1016.9 |
| 20260510153128 | 21 | 115 | 0.0 | 8.0 | 0.00 | 0.00 | 0.00 | 51 | 1016.9 |
| 20260510152900 | 22 | 124 | 3.2 | 8.0 | 0.00 | 0.00 | 0.00 | 52 | 1016.9 |
| 20260510152106 | 22 | 116 | 0.0 | 8.0 | 0.00 | 0.00 | 0.00 | 51 | 1016.9 |
| 20260510151607 | 22 | 175 | 1.6 | 8.0 | 0.00 | 0.00 | 0.00 | 52 | 1016.9 |
| 20260510151049 | 22 | 242 | 3.2 | 16.1 | 0.00 | 0.00 | 0.00 | 53 | 1016.9 |
| 20260510150550 | 21 | 242 | 3.2 | 16.1 | 0.00 | 0.00 | 0.00 | 49 | 1016.6 |
| 20260510150038 | 21 | 136 | 0.0 | 8.0 | 0.00 | 0.00 | 0.00 | 55 | 1016.9 |
| 20260510145538 | 21 | 167 | 1.6 | 8.0 | 0.00 | 0.00 | 0.00 | 54 | 1016.6 |
| 20260510145236 | 20 | 138 | 6.4 | 8.0 | 0.00 | 0.00 | 0.00 | 55 | 1016.6 |
| 20260510144503 | 21 | 191 | 0.0 | 8.0 | 0.00 | 0.00 | 0.00 | 56 | 1016.6 |
| 20260510144004 | 21 | 226 | 1.6 | 8.0 | 0.00 | 0.00 | 0.00 | 53 | 1016.6 |
| 20260510143446 | 21 | 142 | 0.0 | 8.0 | 0.00 | 0.00 | 0.00 | 61 | 1016.2 |
| 20260510142941 | 19 | 128 | 0.0 | 8.0 | 0.00 | 0.00 | 0.00 | 60 | 1015.9 |
| 20260510142432 | 21 | 128 | 1.6 | 3.2 | 0.00 | 0.00 | 0.00 | 59 | 1015.9 |
| 20260510142214 | 20 | 131 | 0.0 | 8.0 | 0.00 | 0.00 | 0.00 | 62 | 1015.9 |
| 20260510141415 | 20 | 190 | 1.6 | 8.0 | 0.00 | 0.00 | 0.00 | 63 | 1015.9 |
| 20260510141159 | 20 | 179 | 1.6 | 8.0 | 0.00 | 0.00 | 0.00 | 63 | 1016.2 |
| 20260510140410 | 18 | 129 | 3.2 | 8.0 | 0.00 | 0.00 | 0.00 | 64 | 1015.9 |
| 20260510140126 | 19 | 187 | 3.2 | 8.0 | 0.00 | 0.00 | 0.00 | 66 | 1015.9 |
| 20260510135625 | 18 | 183 | 1.6 | 3.2 | 0.00 | 0.00 | 0.00 | 68 | 1015.5 |
| 20260510134854 | 17 | 131 | 0.0 | 3.2 | 0.00 | 0.00 | 0.00 | 70 | 1015.9 |
| 20260510134336 | 19 | 147 | 0.0 | 8.0 | 0.00 | 0.00 | 0.00 | 70 | 1015.9 |
| 20260510134034 | 19 | 201 | 1.6 | 8.0 | 0.00 | 0.00 | 0.00 | 70 | 1015.9 |
| 20260510133305 | 17 | 146 | 0.0 | 3.2 | 0.00 | 0.00 | 0.00 | 73 | 1015.9 |
| 20260510132753 | 17 | 166 | 0.0 | 3.2 | 0.00 | 0.00 | 0.00 | 78 | 1015.9 |
| 20260510132252 | 16 | 131 | 0.0 | 3.2 | 0.00 | 0.00 | 0.00 | 80 | 1015.9 |
| 20260510131744 | 15 | 126 | 0.0 | 3.2 | 0.00 | 0.00 | 0.00 | 83 | 1015.5 |
| 20260510131728 | 15 | 172 | 0.0 | 3.2 | 0.00 | 0.00 | 0.00 | 83 | 1015.5 |
| 20260510130723 | 15 | 119 | 0.0 | 3.2 | 0.00 | 0.00 | 0.00 | 86 | 1015.5 |
| 20260510130228 | 15 | 121 | 0.0 | 3.2 | 0.00 | 0.00 | 0.00 | 87 | 1015.5 |
| 20260510125707 | 15 | 119 | 0.0 | 0.0 | 0.00 | 0.00 | 0.00 | 89 | 1015.5 |
| 20260510125424 | 15 | 85 | 0.0 | 0.0 | 0.00 | 0.00 | 0.00 | 90 | 1015.2 |
| 20260510124640 | 15 | 112 | 0.0 | 3.2 | 0.00 | 0.00 | 0.00 | 90 | 1015.2 |
| 20260510124132 | 14 | 128 | 0.0 | 3.2 | 0.00 | 0.00 | 0.00 | 90 | 1015.2 |
| 20260510123848 | 14 | 189 | 0.0 | 3.2 | 0.00 | 0.00 | 0.00 | 92 | 1015.2 |
| 20260510123121 | 14 | 117 | 0.0 | 3.2 | 0.00 | 0.00 | 0.00 | 92 | 1014.9 |
| 20260510122607 | 14 | 64 | 0.0 | 3.2 | 0.00 | 0.00 | 0.00 | 93 | 1015.2 |
| 20260510122333 | 15 | 113 | 0.0 | 3.2 | 0.00 | 0.00 | 0.00 | 94 | 1014.9 |
| 20260510121550 | 15 | 122 | 0.0 | 3.2 | 0.00 | 0.00 | 0.00 | 95 | 1014.9 |
| 20260510121046 | 15 | 188 | 0.0 | 3.2 | 0.00 | 0.00 | 0.00 | 96 | 1014.9 |
| 20260510120801 | 15 | 115 | 0.0 | 3.2 | 0.00 | 0.00 | 0.00 | 97 | 1014.5 |
| 20260510120035 | 15 | 122 | 0.0 | 3.2 | 0.00 | 0.00 | 0.00 | 98 | 1014.9 |
| 20260510115514 | 15 | 119 | 0.0 | 3.2 | 0.00 | 0.00 | 0.00 | 98 | 1014.5 |
| 20260510115008 | 15 | 177 | 0.0 | 0.0 | 0.00 | 0.00 | 0.00 | 99 | 1014.5 |
| 20260510114500 | 15 | 115 | 0.0 | 0.0 | 0.00 | 0.00 | 0.00 | 99 | 1014.5 |
| 20260510113952 | 15 | 123 | 0.0 | 0.0 | 0.00 | 0.00 | 0.00 | 99 | 1014.2 |
| 20260510113443 | 15 | 107 | 0.0 | 3.2 | 0.00 | 0.00 | 0.00 | 99 | 1014.5 |
| 20260510112935 | 15 | 20 | 0.0 | 3.2 | 0.00 | 0.00 | 0.00 | 99 | 1014.2 |
| 20260510112430 | 15 | 117 | 0.0 | 0.0 | 0.00 | 0.00 | 0.00 | 99 | 1013.9 |
| 20260510111928 | 15 | 120 | 0.0 | 0.0 | 0.00 | 0.00 | 0.00 | 99 | 1013.9 |
| 20260510111642 | 15 | 108 | 0.0 | 0.0 | 0.00 | 0.00 | 0.00 | 99 | 1013.5 |
| 20260510110912 | 15 | 71 | 0.0 | 0.0 | 0.00 | 0.00 | 0.00 | 99 | 1013.5 |
| 20260510110353 | 14 | 104 | 0.0 | 0.0 | 0.00 | 0.00 | 0.00 | 99 | 1013.5 |
| 20260510105849 | 15 | 109 | 0.0 | 0.0 | 0.00 | 0.00 | 0.00 | 99 | 1013.5 |
| 20260510105829 | 14 | 126 | 0.0 | 0.0 | 0.00 | 0.00 | 0.00 | 99 | 1013.5 |
| 20260510104838 | 14 | 108 | 0.0 | 0.0 | 0.00 | 0.00 | 0.00 | 99 | 1013.2 |
| 20260510104311 | 14 | 94 | 0.0 | 0.0 | 0.00 | 0.00 | 0.00 | 99 | 1013.2 |
| 20260510103803 | 14 | 96 | 0.0 | 3.2 | 0.00 | 0.00 | 0.00 | 99 | 1012.8 |
| 20260510103259 | 15 | 96 | 0.0 | 3.2 | 0.00 | 0.00 | 0.00 | 99 | 1012.8 |
| 20260510103011 | 14 | 89 | 0.0 | 3.2 | 0.00 | 0.00 | 0.00 | 99 | 1012.8 |
| 20260510102252 | 15 | 106 | 0.0 | 3.2 | 0.00 | 0.00 | 0.00 | 99 | 1012.8 |
| 20260510101743 | 14 | 103 | 0.0 | 0.0 | 0.00 | 0.00 | 0.00 | 99 | 1012.8 |
| 20260510101235 | 14 | 108 | 0.0 | 0.0 | 0.00 | 0.00 | 0.00 | 99 | 1012.5 |
| 20260510101156 | 15 | 76 | 0.0 | 0.0 | 0.00 | 0.00 | 0.00 | 99 | 1012.8 |
| 20260510100200 | 15 | 112 | 0.0 | 0.0 | 0.00 | 0.00 | 0.00 | 99 | 1012.8 |
| 20260510095925 | 15 | 95 | 0.0 | 0.0 | 0.00 | 0.00 | 0.00 | 99 | 1012.2 |
| 20260510095419 | 15 | 120 | 0.0 | 0.0 | 0.00 | 0.00 | 0.00 | 99 | 1012.5 |
| 20260510095321 | 15 | 111 | 0.0 | 0.0 | 0.00 | 0.00 | 0.00 | 99 | 1012.5 |
| 20260510094146 | 15 | 115 | 0.0 | 0.0 | 0.00 | 0.00 | 0.00 | 99 | 1012.2 |
| 20260510093632 | 15 | 104 | 0.0 | 0.0 | 0.00 | 0.00 | 0.00 | 99 | 1012.2 |
| 20260510093132 | 15 | 113 | 0.0 | 0.0 | 0.00 | 0.00 | 0.00 | 99 | 1012.2 |
| 20260510092833 | 15 | 117 | 0.0 | 3.2 | 0.00 | 0.00 | 0.00 | 98 | 1012.2 |
| 20260510092102 | 15 | 123 | 0.0 | 3.2 | 0.00 | 0.00 | 0.00 | 98 | 1011.8 |
| 20260510091559 | 15 | 112 | 0.0 | 0.0 | 0.00 | 0.00 | 0.00 | 97 | 1011.8 |
| 20260510091046 | 16 | 145 | 0.0 | 0.0 | 0.00 | 0.00 | 0.00 | 97 | 1012.2 |
| 20260510090527 | 16 | 146 | 0.0 | 3.2 | 0.00 | 0.00 | 0.00 | 97 | 1012.2 |
| 20260510090247 | 16 | 116 | 0.0 | 3.2 | 0.00 | 0.00 | 0.00 | 96 | 1012.2 |
| 20260510085510 | 16 | 124 | 0.0 | 3.2 | 0.00 | 0.00 | 0.00 | 96 | 1012.2 |
| 20260510084959 | 16 | 102 | 0.0 | 3.2 | 0.00 | 0.00 | 0.00 | 96 | 1012.2 |
| 20260510084454 | 16 | 117 | 0.0 | 0.0 | 0.00 | 0.00 | 0.00 | 96 | 1012.2 |
| 20260510083954 | 16 | 125 | 0.0 | 0.0 | 0.00 | 0.00 | 0.00 | 96 | 1011.8 |
| 20260510083707 | 16 | 117 | 0.0 | 3.2 | 0.00 | 0.00 | 0.00 | 96 | 1011.8 |
| 20260510082938 | 16 | 121 | 0.0 | 3.2 | 0.00 | 0.00 | 0.00 | 95 | 1011.8 |
| 20260510082435 | 16 | 116 | 0.0 | 0.0 | 0.00 | 0.00 | 0.00 | 95 | 1011.8 |
| 20260510081931 | 16 | 111 | 0.0 | 0.0 | 0.00 | 0.00 | 0.00 | 95 | 1011.5 |
| 20260510081427 | 16 | 120 | 0.0 | 0.0 | 0.00 | 0.00 | 0.00 | 95 | 1011.5 |
| 20260510081145 | 16 | 115 | 0.0 | 0.0 | 0.00 | 0.00 | 0.00 | 95 | 1011.5 |
| 20260510080418 | 16 | 115 | 0.0 | 0.0 | 0.00 | 0.00 | 0.00 | 95 | 1011.5 |
| 20260510075912 | 16 | 111 | 0.0 | 0.0 | 0.00 | 0.00 | 0.00 | 95 | 1011.5 |
| 20260510075403 | 16 | 115 | 0.0 | 0.0 | 0.00 | 0.00 | 0.00 | 95 | 1011.1 |
| 20260510074855 | 16 | 129 | 0.0 | 0.0 | 0.00 | 0.00 | 0.00 | 95 | 1011.5 |
| 20260510074338 | 16 | 109 | 0.0 | 3.2 | 0.00 | 0.00 | 0.00 | 96 | 1011.1 |
| 20260510073833 | 16 | 147 | 0.0 | 3.2 | 0.00 | 0.00 | 0.00 | 96 | 1011.1 |
| 20260510073315 | 16 | 120 | 0.0 | 0.0 | 0.00 | 0.00 | 0.00 | 97 | 1011.1 |
| 20260510072819 | 16 | 68 | 0.0 | 0.0 | 0.00 | 0.00 | 0.00 | 96 | 1010.8 |
| 20260510072313 | 16 | 88 | 0.0 | 0.0 | 0.00 | 0.00 | 0.00 | 97 | 1010.8 |
| 20260510071803 | 16 | 109 | 0.0 | 3.2 | 0.00 | 0.00 | 0.00 | 97 | 1011.1 |
| 20260510071256 | 16 | 99 | 0.0 | 3.2 | 0.00 | 0.00 | 0.00 | 97 | 1010.8 |
| 20260510070737 | 16 | 100 | 0.0 | 3.2 | 0.00 | 0.00 | 0.00 | 97 | 1010.4 |
| 20260510070235 | 16 | 113 | 0.0 | 3.2 | 0.00 | 0.00 | 0.00 | 96 | 1010.4 |
| 20260510070211 | 16 | 94 | 0.0 | 3.2 | 0.00 | 0.00 | 0.00 | 96 | 1010.4 |
| 20260510065700 | 16 | 55 | 0.0 | 0.0 | 0.00 | 0.00 | 0.00 | 96 | 1010.4 |
| 20260510064143 | 16 | 78 | 0.0 | 0.0 | 0.00 | 0.00 | 0.00 | 95 | 1011.1 |
| 20260510063639 | 16 | 108 | 0.0 | 0.0 | 0.00 | 0.00 | 0.00 | 95 | 1011.1 |
| 20260510063126 | 16 | 97 | 0.0 | 0.0 | 0.00 | 0.00 | 0.00 | 94 | 1010.8 |
| 20260510062628 | 16 | 96 | 0.0 | 0.0 | 0.00 | 0.00 | 0.00 | 94 | 1010.8 |
| 20260510062124 | 16 | 116 | 0.0 | 0.0 | 0.00 | 0.00 | 0.00 | 94 | 1010.8 |
| 20260510061613 | 16 | 77 | 0.0 | 0.0 | 0.00 | 0.00 | 0.00 | 93 | 1010.4 |
| 20260510061054 | 16 | 109 | 0.0 | 0.0 | 0.00 | 0.00 | 0.00 | 93 | 1010.8 |
| 20260510060544 | 16 | 115 | 0.0 | 0.0 | 0.00 | 0.00 | 0.00 | 93 | 1010.8 |
| 20260510060034 | 17 | 112 | 0.0 | 0.0 | 0.00 | 0.00 | 0.00 | 92 | 1010.8 |
| 20260510055523 | 17 | 109 | 0.0 | 0.0 | 0.00 | 0.00 | 0.00 | 91 | 1010.8 |
| 20260510055016 | 17 | 112 | 0.0 | 0.0 | 0.00 | 0.00 | 0.00 | 91 | 1010.8 |
| 20260510054514 | 17 | 134 | 0.0 | 3.2 | 0.00 | 0.00 | 0.00 | 90 | 1010.8 |
| 20260510054009 | 17 | 351 | 0.0 | 3.2 | 0.00 | 0.00 | 0.00 | 90 | 1011.1 |
| 20260510053715 | 17 | 106 | 0.0 | 0.0 | 0.00 | 0.00 | 0.00 | 89 | 1011.5 |
| 20260510052956 | 17 | 121 | 0.0 | 3.2 | 0.00 | 0.00 | 0.00 | 88 | 1010.8 |
| 20260510052450 | 17 | 166 | 0.0 | 3.2 | 0.00 | 0.00 | 0.00 | 86 | 1010.8 |
| 20260510052155 | 17 | 133 | 0.0 | 0.0 | 0.00 | 0.00 | 0.00 | 88 | 1010.4 |
| 20260510051417 | 17 | 109 | 0.0 | 0.0 | 0.00 | 0.00 | 0.00 | 86 | 1010.8 |
| 20260510050913 | 17 | 117 | 0.0 | 0.0 | 0.00 | 0.08 | 0.00 | 86 | 1010.8 |
| 20260510050413 | 17 | 127 | 0.0 | 3.2 | 0.00 | 0.13 | 0.00 | 86 | 1010.8 |
| 20260510045910 | 18 | 116 | 0.0 | 3.2 | 0.00 | 0.15 | 0.15 | 86 | 1010.8 |
| 20260510045407 | 18 | 164 | 0.0 | 3.2 | 0.00 | 0.23 | 0.15 | 84 | 1010.4 |
| 20260510044855 | 18 | 98 | 0.0 | 3.2 | 0.00 | 0.28 | 0.15 | 85 | 1010.4 |
| 20260510044339 | 18 | 155 | 0.0 | 3.2 | 0.00 | 0.33 | 0.15 | 84 | 1010.4 |
| 20260510043823 | 18 | 110 | 0.0 | 3.2 | 0.00 | 0.43 | 0.15 | 84 | 1010.4 |
| 20260510043313 | 18 | 204 | 0.0 | 3.2 | 0.00 | 0.48 | 0.15 | 83 | 1010.4 |
| 20260510043053 | 18 | 111 | 0.0 | 3.2 | 0.00 | 0.56 | 0.15 | 83 | 1010.0 |
| 20260510042313 | 18 | 130 | 0.0 | 3.2 | 0.00 | 0.61 | 0.15 | 82 | 1010.0 |
| 20260510041816 | 17 | 73 | 0.0 | 3.2 | 0.00 | 0.66 | 0.15 | 81 | 1010.0 |
| 20260510041302 | 17 | 265 | 0.0 | 8.0 | 0.00 | 0.71 | 0.15 | 82 | 1009.7 |
| 20260510040805 | 17 | 157 | 0.0 | 8.0 | 0.00 | 0.79 | 0.15 | 84 | 1010.0 |
| 20260510040240 | 16 | 128 | 3.2 | 8.0 | 0.00 | 0.84 | 0.15 | 93 | 1009.7 |
| 20260510035730 | 16 | 87 | 0.0 | 0.0 | 0.00 | 0.91 | 0.15 | 92 | 1009.0 |
| 20260510035439 | 16 | 92 | 0.0 | 0.0 | 0.00 | 0.99 | 0.15 | 93 | 1008.7 |
| 20260510034713 | 16 | 102 | 0.0 | 0.0 | 0.00 | 1.07 | 0.15 | 93 | 1008.7 |
| 20260510034213 | 16 | 100 | 0.0 | 0.0 | 0.00 | 1.14 | 0.15 | 93 | 1008.7 |
| 20260510033656 | 16 | 97 | 0.0 | 0.0 | 0.00 | 1.32 | 0.15 | 93 | 1008.7 |
| 20260510033137 | 16 | 96 | 0.0 | 0.0 | 0.00 | 1.45 | 0.15 | 94 | 1008.7 |
| 20260510032626 | 16 | 104 | 0.0 | 0.0 | 0.00 | 1.75 | 0.15 | 94 | 1008.7 |
| 20260510032112 | 16 | 104 | 0.0 | 0.0 | 0.00 | 1.93 | 0.15 | 94 | 1008.7 |
| 20260510032057 | 16 | 104 | 0.0 | 0.0 | 0.00 | 1.96 | 0.15 | 95 | 1008.3 |
| 20260510031110 | 16 | 104 | 0.0 | 0.0 | 0.00 | 1.98 | 0.15 | 95 | 1008.3 |
| 20260510030610 | 16 | 104 | 0.0 | 0.0 | 0.00 | 1.98 | 0.15 | 95 | 1008.3 |
| 20260510030327 | 16 | 103 | 0.0 | 0.0 | 0.00 | 2.03 | 0.15 | 95 | 1008.3 |
| 20260510025822 | 15 | 103 | 0.0 | 0.0 | 0.00 | 2.06 | 0.15 | 95 | 1008.3 |
| 20260510025309 | 16 | 103 | 0.0 | 0.0 | 0.00 | 2.06 | 0.15 | 94 | 1008.3 |
| 20260510024541 | 16 | 103 | 0.0 | 0.0 | 0.00 | 2.08 | 0.15 | 94 | 1008.3 |
| 20260510024035 | 16 | 103 | 0.0 | 0.0 | 0.00 | 2.08 | 0.15 | 93 | 1008.3 |
| 20260510023515 | 16 | 104 | 0.0 | 0.0 | 0.00 | 2.08 | 0.15 | 93 | 1008.0 |
| 20260510023019 | 16 | 104 | 0.0 | 0.0 | 0.00 | 2.08 | 0.15 | 92 | 1008.3 |
| 20260510022502 | 16 | 103 | 0.0 | 0.0 | 0.00 | 2.08 | 0.15 | 91 | 1008.0 |
| 20260510022212 | 16 | 103 | 0.0 | 0.0 | 0.00 | 2.08 | 0.15 | 90 | 1008.0 |
| 20260510021452 | 17 | 105 | 0.0 | 0.0 | 0.00 | 2.08 | 0.15 | 90 | 1008.0 |
| 20260510020935 | 17 | 105 | 0.0 | 0.0 | 0.00 | 2.08 | 0.15 | 89 | 1007.7 |
| 20260510020421 | 17 | 105 | 0.0 | 0.0 | 0.00 | 2.08 | 0.15 | 88 | 1007.7 |
| 20260510020136 | 17 | 105 | 0.0 | 0.0 | 0.00 | 2.08 | 0.15 | 87 | 1007.7 |
| 20260510015411 | 17 | 107 | 0.0 | 0.0 | 0.00 | 2.08 | 0.15 | 86 | 1007.7 |
| 20260510014902 | 17 | 104 | 0.0 | 0.0 | 0.00 | 2.08 | 0.15 | 86 | 1007.7 |
| 20260510014622 | 18 | 97 | 0.0 | 0.0 | 0.00 | 2.08 | 0.15 | 85 | 1007.7 |
| 20260510013838 | 18 | 96 | 0.0 | 0.0 | 0.00 | 2.08 | 0.15 | 83 | 1007.3 |
| 20260510013326 | 18 | 95 | 0.0 | 0.0 | 0.00 | 2.11 | 0.15 | 82 | 1007.7 |
| 20260510012817 | 18 | 95 | 0.0 | 0.0 | 0.00 | 2.11 | 0.15 | 80 | 1007.3 |
| 20260510012309 | 18 | 94 | 0.0 | 0.0 | 0.00 | 2.13 | 0.15 | 79 | 1007.3 |
| 20260510012021 | 19 | 89 | 0.0 | 0.0 | 0.00 | 2.16 | 0.15 | 78 | 1007.3 |
| 20260510011254 | 19 | 88 | 0.0 | 0.0 | 0.00 | 2.16 | 0.15 | 76 | 1007.3 |
| 20260510010742 | 20 | 88 | 0.0 | 0.0 | 0.00 | 2.26 | 0.15 | 74 | 1007.3 |
| 20260510010236 | 20 | 88 | 0.0 | 0.0 | 0.00 | 2.39 | 0.15 | 72 | 1007.0 |
| 20260510005723 | 20 | 88 | 0.0 | 0.0 | 0.00 | 2.44 | 0.15 | 71 | 1007.0 |
| 20260510005214 | 21 | 88 | 0.0 | 0.0 | 0.00 | 2.46 | 0.15 | 70 | 1007.3 |
| 20260510004706 | 21 | 88 | 0.0 | 0.0 | 0.00 | 2.46 | 0.15 | 69 | 1007.0 |
| 20260510004211 | 21 | 88 | 0.0 | 0.0 | 0.00 | 2.46 | 0.15 | 66 | 1007.0 |
| 20260510003854 | 22 | 87 | 0.0 | 0.0 | 0.00 | 2.46 | 0.15 | 65 | 1007.0 |
| 20260510003123 | 22 | 87 | 0.0 | 0.0 | 0.00 | 2.46 | 0.15 | 62 | 1007.0 |
| 20260510002614 | 23 | 87 | 0.0 | 0.0 | 0.00 | 2.46 | 0.15 | 60 | 1006.6 |
| 20260510002108 | 23 | 87 | 0.0 | 0.0 | 0.00 | 2.46 | 0.15 | 60 | 1006.6 |
| 20260510001610 | 23 | 88 | 0.0 | 0.0 | 0.00 | 2.46 | 0.15 | 59 | 1006.6 |
| 20260510001104 | 23 | 88 | 0.0 | 0.0 | 0.00 | 2.46 | 0.15 | 57 | 1006.6 |
| 20260510000555 | 24 | 87 | 0.0 | 0.0 | 0.00 | 2.46 | 0.15 | 55 | 1006.6 |
| 20260510000033 | 24 | 91 | 0.0 | 0.0 | 0.00 | 2.46 | 0.15 | 55 | 1007.0 |
| 20260509235519 | 25 | 100 | 0.0 | 0.0 | 0.00 | 2.46 | 0.15 | 55 | 1006.6 |
| 20260509235013 | 25 | 118 | 0.0 | 0.0 | 0.00 | 2.46 | 0.15 | 53 | 1006.6 |
| 20260509234503 | 25 | 59 | 0.0 | 0.0 | 0.00 | 2.46 | 0.15 | 52 | 1006.6 |
| 20260509233958 | 25 | 84 | 0.0 | 3.2 | 0.00 | 2.46 | 0.15 | 49 | 1006.6 |
| 20260509233455 | 25 | 124 | 0.0 | 3.2 | 0.00 | 2.46 | 0.15 | 49 | 1006.6 |
| 20260509232947 | 25 | 112 | 0.0 | 3.2 | 0.00 | 2.46 | 0.15 | 53 | 1006.6 |
| 20260509232443 | 26 | 42 | 0.0 | 3.2 | 0.00 | 2.46 | 0.15 | 48 | 1006.6 |
| 20260509232158 | 26 | 116 | 0.0 | 3.2 | 0.00 | 2.46 | 0.15 | 51 | 1006.6 |
| 20260509231430 | 26 | 128 | 0.0 | 3.2 | 0.00 | 2.46 | 0.15 | 48 | 1006.6 |
| 20260509230917 | 26 | 100 | 0.0 | 3.2 | 0.00 | 2.46 | 0.15 | 50 | 1006.6 |
| 20260509230431 | 26 | 132 | 0.0 | 3.2 | 0.00 | 2.46 | 0.15 | 51 | 1006.6 |
| 20260509225855 | 26 | 113 | 0.0 | 3.2 | 0.00 | 2.46 | 0.15 | 50 | 1006.3 |
| 20260509225344 | 26 | 130 | 0.0 | 3.2 | 0.00 | 2.46 | 0.15 | 45 | 1006.3 |
| 20260509224837 | 26 | 125 | 0.0 | 3.2 | 0.00 | 2.46 | 0.15 | 46 | 1006.3 |
| 20260509224326 | 26 | 135 | 0.0 | 3.2 | 0.00 | 2.46 | 0.15 | 49 | 1006.6 |
| 20260509223821 | 26 | 139 | 0.0 | 3.2 | 0.00 | 2.46 | 0.15 | 48 | 1006.6 |
| 20260509223524 | 26 | 138 | 0.0 | 3.2 | 0.00 | 2.46 | 0.15 | 49 | 1006.6 |
| 20260509222800 | 26 | 137 | 1.6 | 3.2 | 0.00 | 2.46 | 0.15 | 45 | 1006.6 |
| 20260509222255 | 26 | 127 | 1.6 | 3.2 | 0.00 | 2.46 | 0.15 | 47 | 1006.6 |
| 20260509221741 | 26 | 102 | 0.0 | 3.2 | 0.00 | 2.46 | 0.15 | 46 | 1006.6 |
| 20260509221506 | 26 | 132 | 0.0 | 3.2 | 0.00 | 2.46 | 0.15 | 46 | 1006.6 |
| 20260509220725 | 26 | 131 | 0.0 | 8.0 | 0.00 | 2.46 | 0.15 | 45 | 1006.6 |